www.pogodaiklimat.ru

Погода и климат >> Архив погоды >> Пакистан >> Джейкобабад


ПОГОДА в Джейкобабаде

  • Прогноз погоды в Джейкобабаде
  • Монитор погоды в Джейкобабаде

АРХИВ ПОГОДЫ в Джейкобабаде

Время (UTC), дата Ветер
(напр.,м/с)
 
Видим.   Явления Облачность Т
(С)
Тd
(С)
f
(%)
Тe
(С)
Тes
(С)
Комфортность P
(гПа)
Po
(гПа)
Тmin
(С)
Tmax
(С)
R
(мм)
R24
(мм)
S
(см)
06 13.02 С 3 4000 м мгла 8/0
[Ac trans Ci fib]
+19.5 +6.7 43 +20 +26 1022.0 1013.9
09 13.02 штиль 0 4000 м мгла 4/0
[Ac trans]
+23.0 +7.9 38 +24 +35 комфорт 1017.9 1011.3
12 13.02 штиль 0 4000 м мгла 4/0
[Ac trans]
+23.0 +7.9 38 +24 +25 комфорт 1016.3 1009.8 +24.5
15 13.02 штиль 0 4000 м мгла 8/4 1050 м
[St Ac trans]
+17.0 +8.2 56 +17 +17 1016.8 1000.0
18 13.02 штиль 0 2000 м мгла 4/0
[Ac trans]
+16.0 +10.4 69 +16 +16 1018.1 1011.4 1
21 13.02 штиль 0 2000 м мгла 5/0
[Ac trans]
+15.0 +10.3 73 +15 +15 1017.5 1000.0
00 14.02 штиль 0 2000 м мгла ясно +13.0 +7.4 69 +13 +13 1016.1 1009.3
03 14.02 СЗ 1 2000 м мгла ясно +14.5 +3.5 48 +16 +17 1016.9 1010.2 +12.5
06 14.02 С 1 4000 м мгла ясно +22.0 +3.4 29 +22 +36 комфорт 1017.6 1011.0
09 14.02 С 1 4000 м мгла ясно +24.5 +3.0 25 +24 +37 комфорт 1015.3 1000.0
12 14.02 С 1 4000 м мгла ясно +24.0 +2.0 24 +23 +24 комфорт 1013.0 1006.6 +26.1
15 14.02 штиль 0 4000 м ясно +17.5 +5.1 44 +18 +18 1014.8 1000.0
18 14.02 штиль 0 4000 м ясно +16.5 +7.6 56 +16 +16 1016.3 1009.7
21 14.02 штиль 0 2000 м мгла ясно +15.5 +7.5 59 +15 +15 1015.9 1000.0
00 15.02 штиль 0 2000 м мгла ясно +13.5 +7.4 67 +13 +13 1016.3 1009.6
03 15.02 штиль 0 2000 м мгла ясно +12.0 +4.3 59 +12 +14 1018.6 1011.8 +11.1
06 15.02 СВ 1 4000 м мгла ясно +20.0 +10.9 56 +23 +35 комфорт 1020.0 1013.4
09 15.02 СВ 1 4000 м мгла ясно +22.0 +10.2 47 +24 +37 комфорт 1018.5 1000.0
12 15.02 СВ 1 4000 м мгла ясно +24.0 +9.4 40 +25 +26 комфорт 1016.1 1009.6 +25.0
15 15.02 штиль 0 4000 м ясно +18.0 +8.3 53 +18 +18 1017.2 1010.5
18 15.02 штиль 0 4000 м ясно +17.0 +8.2 56 +17 +17 1018.1 1011.4
21 15.02 штиль 0 2000 м мгла ясно +15.5 +6.8 56 +15 +15 1017.4 1000.0
00 16.02 штиль 0 2000 м мгла ясно +14.0 +8.0 67 +14 +14 1017.9 1011.2
03 16.02 штиль 0 1000 м дым ясно +11.5 +9.5 88 +11 +13 1019.8 1012.9 +10.1
06 16.02 штиль 0 4000 м мгла ясно +20.0 +10.9 56 +21 +36 комфорт 1020.9 1014.3
09 16.02 штиль 0 4000 м мгла ясно +23.5 +9.9 42 +25 +39 комфорт 1018.4 1000.0
12 16.02 штиль 0 4000 м мгла 5/0
[Ac trans]
+23.0 +10.4 45 +25 +26 комфорт 1016.2 1009.8 +25.0
15 16.02 штиль 0 4000 м мгла 5/0
[Ac trans]
+19.0 +11.8 63 +20 +20 1017.0 1000.0
18 16.02 штиль 0 4000 м мгла 5/0
[Ac trans]
+18.0 +10.6 62 +18 +18 1018.4 1011.7
21 16.02 штиль 0 4000 м мгла 4/0
[Ac trans]
+16.5 +9.9 65 +16 +16 1017.3 1000.0
00 17.02 штиль 0 2000 м мгла 4/0
[Ac trans]
+15.0 +9.2 68 +15 +15 1016.1 1009.4
03 17.02 штиль 0 2000 м мгла 4/0
[Ac trans]
+14.5 +9.7 73 +14 +16 1016.4 1009.8 +12.1
06 17.02 В 3 4000 м мгла 8/0
[Ac trans Ci fib]
+19.0 +7.3 47 +20 +27 1016.2 1008.4
09 17.02 В 1 4000 м мгла 5/0
[Ac trans]
+21.0 +10.0 49 +24 +33 комфорт 1014.4 1007.8
12 17.02 В 1 4000 м мгла 5/0
[Ac trans]
+20.0 +8.6 48 +22 +23 комфорт 1011.4 1004.9 +23.0
15 17.02 штиль 0 4000 м мгла 5/0
[Ac trans]
+17.0 +9.4 61 +17 +17 1011.7 1000.0
18 17.02 штиль 0 2000 м мгла 4/0
[Ac trans]
+15.5 +10.8 74 +15 +15 1012.3 1005.6
21 17.02 штиль 0 2000 м мгла 4/0
[Ac trans]
+15.0 +10.3 73 +15 +15 1010.3 1003.6
00 18.02 штиль 0 2000 м мгла ясно +13.0 +9.1 77 +13 +13 1008.6 1001.9
03 18.02 штиль 0 2000 м дым ясно +13.0 +9.1 77 +13 +15 1009.4 1002.7 +11.1
06 18.02 СВ 1 4000 м мгла ясно +20.0 +9.8 52 +22 +36 комфорт 1009.5 1002.9
09 18.02 СВ 1 4000 м мгла ясно +23.5 +9.9 42 +25 +38 комфорт 1007.3 1000.0
12 18.02 СВ 1 4000 м мгла ясно +23.5 +9.9 42 +25 +26 комфорт 1005.4 999.0 +25.0
15 18.02 В 1 4000 м мгла 3/0
[Ac trans]
+19.5 +10.3 55 +22 +22 комфорт 1007.2 1000.6
18 18.02 штиль 0 4000 м мгла ясно +18.0 +10.6 62 +18 +18 1009.4 1002.8
21 18.02 штиль 0 2000 м мгла ясно +15.0 +10.3 73 +15 +15 1008.5 1000.0
00 19.02 штиль 0 2000 м мгла 4/4 1200 м
[St]
+14.0 +10.2 78 +14 +14 1009.0 1002.3
03 19.02 СВ 1 2000 м мгла 4/4 1050 м
[Sc]
+14.0 +10.2 78 +15 +16 1011.4 1004.7 +11.5
06 19.02 СВ 2 4000 м мгла 6/6 1050 м
[Sc Ac trans]
+18.5 +11.2 62 +19 +24 1013.1 1006.6
09 19.02 СВ 1 4000 м мгла 6/6 1050 м
[Sc Ac trans]
+20.5 +11.6 57 +24 +31 комфорт 1010.9 1000.0
12 19.02 СВ 1 4000 м мгла 6/6 1050 м
[Sc Ac trans]
+22.5 +10.8 48 +25 +25 комфорт 1009.5 1003.0 +23.5
15 19.02 В 1 4000 м мгла 8/4 1200 м
[St Ac trans]
+19.0 +11.8 63 +21 +21 комфорт 1011.6 1000.0
18 19.02 штиль 0 4000 м мгла 9/4 1200 м
[St Ac trans]
+17.5 +11.1 66 +18 +18 1015.0 1008.3
21 19.02 штиль 0 2000 м мгла 9/4 1200 м
[St Ac trans]
+16.0 +10.4 69 +16 +16 1014.2 1007.5 0.9
00 20.02 ЮВ 1 2000 м слаб. дождь 10/5 1200 м
[St Ac trans]
+15.0 +10.3 73 +16 +16 1013.5 1006.9 3
03 20.02 СВ 3 2000 м слаб. дождь 10/5
[St Ac lent]
+14.0 +11.2 83 +13 +13 1016.3 1009.6 +13.0 5

 

Местоположение метеостанции Джейкобабад (Пакистан): широта 28.30 долгота 68.47 высота над уровнем моря 56 м.

В архиве по умолчанию представлена погода в Джейкобабаде за последнюю неделю. Архивные данные за месяц целиком и за предыдущие месяцы, начиная с января 2011 года, Вы можете получить, выбрав интересующий диапазон дат из раскрывающегося списка и нажав кнопку "Ввод!".


*Определитесь, кто Вы:
робот инопланетянин человек

Внимание! Время в таблицах - всемирное. Для получения местного времени необходимо прибавить поправку, которая равна 5 ч.

Смотрите также архив погоды в соседних городах и на ближайших метеорологических станциях:

Погода в Рохри (Пакистан) (82 км)
Погода в Сиби (Пакистан) (150 км)
Погода в Пад Идан (Пакистан) (165 км)
Погода в Хуздаре (Пакистан) (188 км)
Погода в Калате (Пакистан) (202 км)
Погода в Бархане (Пакистан) (214 км)
Погода в Ханпуре (Пакистан) (220 км)
Погода в Навабшахе (Пакистан) (228 км)
Погода в Кветте (Пакистан) (266 км)
Погода в Джайсалмере (Раджастхан, Индия) (287 км)

Пояснения к столбцам:

Ветер - указаны скорость ветра в м/с - средняя за 10 мин, порывы в срок и между сроками (в фигурных скобках) и направление, откуда дует ветер: С - северный, СВ - северо-восточный, В - восточный, ЮВ - юго-восточный, Ю - южный, ЮЗ - юго-западный, З - западный, СЗ - северо-западный.
Видимость - горизонтальная дальность видимости в метрах или километрах. При видимости от 1 до 10 км при отсутствии осадков обычно наблюдается дымка, при ухудшении видимости до 1 км и менее - туман. В сухую погоду видимость может ухудшаться дымом, пылью или мглою.
Явления - указаны атмосферные явления, наблюдавшиеся в срок или в последний час перед сроком; фигурными скобками обозначены явления, наблюдавшиеся между сроками (за 1-3 часа до срока); квадратными скобками обозначены град или гололедные отложения с указанием их диаметра в мм.
Облачность - указаны через наклонную черту общая и нижняя облачность в баллах и высота нижней границы облаков в метрах; квадратными скобками обозначены формы облаков: Ci - перистые, Cs - перисто-слоистые, Cc - перисто-кучевые, Ac - высококучевые, As - высокослоистые, Sc - слоисто-кучевые, Ns - слоисто-дождевые, Cu - кучевые, Cb - кучево-дождевые. Подробнее классификацию облаков см. в Атласе облаков (PDF).
T - Температура воздуха - температура, измеренная на высоте 2 м над землей.
Td - Температура точки росы - температура, при понижении до которой содержащийся в воздухе водяной пар достигнет насыщения.
f - Относительная влажность воздуха - влажноcть воздуха, измеренная на высоте 2 м над землей.
Te - Эффективная температура - температура, которую ощущает одетый по сезону человек в тени. Характеристика душности погоды. При расчете учитывается влияние влажности воздуха и скорости ветра на теплоощущения человека.
Tes - Эффективная температура на солнце - температура, которую ощущает человек, с поправкой на солнечный нагрев. Характеристика знойности погоды. Зависит от высоты солнца над горизонтом, облачности и скорости ветра. Ночью, в пасмурную погоду, а также при ветре 12 м/с и более поправка равна нулю.
P - Атмосферное давление - приведенное к уровню моря атмосферное давление.
Po - Атмосферное давление - измеренное на уровне метеостанции атмосферное давление.
Tmin - Минимальная температура - минимум температуры воздуха на высоте 2 м над землей.
Tmax - Максимальная температура - максимум температуры воздуха на высоте 2 м над землей.
R - Количество осадков - Количество выпавших осадков за период времени, мм. При наведении курсора мыши на число - период времени, за который выпало указанное количество осадков.
R24 - Количество осадков - Количество выпавших осадков за 24 часа, мм.
S - Снежный покров - Высота снежного покрова, см. При наведении курсора мыши на число - состояние снежного покрова и степень покрытия местности в баллах.